User: anonymous   Login
Location: Unspecified
(0.0000°N, 0.0000°E)
Time: 18:57:56
(UTC+00:00)
Language:

Aussat K3 - Orbit

View from above orbital plane
View from above orbital plane
View from above satellite
View from above satellite

Ground track
Ground track

The orbit data is extracted from the following two-line orbital elements,

1 18350U 87078A   17113.08369973 -.00000241 +00000-0 +00000-0 0  9993
2 18350 014.6198 018.7223 0008819 287.3776 257.2368 00.98907872107468
Epoch (UTC): 23 April 2017 02:00:31
Eccentricity: 0.0008819
inclination: 14.6198°
perigee height: 36135 km
apogee height: 36210 km
right ascension of ascending node: 18.7223°
argument of perigee: 287.3776°
revolutions per day: 0.98907872
mean anomaly at epoch: 257.2368°
orbit number at epoch: 10746

The dashed part of the orbit path shows where the satellite is in the earth's shadow,  

DLR